When you browse on this site, cookies collect data to enhance your experience and personalize the content and advertising you see.
Visit our Privacy Policy to learn more. By continuing to use the site, you agree to this use of cookies and data.
  • In Czech Republic
  • List of Countries
  • For 7 days
  • Water Temperature
  • Satellite Maps
  • Weather Map
  • Weather Widgets
  • user-avatar
    Login

    Hourly Weather Indianapolis

    Today, 24 January, Thursday

    Time Temperature Precipitation Wind Pressure Humidity
    00:00 -5°C° 0 mm 4 mps 738 mmHg 82%
    01:00 -7°C° 0 mm 4 mps 738 mmHg 81%
    02:00 -7°C° 0 mm 4 mps 737 mmHg 80%
    03:00 -7°C° 0 mm 5 mps 737 mmHg 79%
    04:00 -7°C° 0 mm 4 mps 737 mmHg 78%
    05:00 -8°C° 0 mm 4 mps 738 mmHg 78%
    06:00 -8°C° 0 mm 4 mps 738 mmHg 77%
    07:00 -8°C° 0 mm 4 mps 739 mmHg 76%
    08:00 -8°C° 0 mm 4 mps 739 mmHg 74%
    09:00 -7°C° 0 mm 4 mps 740 mmHg 73%
    10:00 -7°C° 0 mm 4 mps 740 mmHg 70%
    11:00 -5°C° 0 mm 4 mps 740 mmHg 68%
    12:00 -4°C° 0 mm 4 mps 740 mmHg 65%
    13:00 -4°C° 0 mm 4 mps 740 mmHg 67%
    14:00 -4°C° 0 mm 5 mps 740 mmHg 69%
    15:00 -4°C° 0 mm 6 mps 740 mmHg 70%
    16:00 -5°C° 0.1 mm 6 mps 740 mmHg 71%
    17:00 -6°C° 0.1 mm 6 mps 741 mmHg 71%
    18:00 -6°C° 0.1 mm 6 mps 741 mmHg 72%
    19:00 -8°C° 0.1 mm 7 mps 742 mmHg 72%
    20:00 -9°C° 0.1 mm 7 mps 742 mmHg 72%
    21:00 -11°C° 0.1 mm 8 mps 743 mmHg 72%
    22:00 -13°C° 0 mm 7 mps 743 mmHg 70%
    23:00 -15°C° 0 mm 7 mps 744 mmHg 68%

    Tomorrow, 25 January, Friday

    Time Temperature Precipitation Wind Pressure Humidity
    00:00 -18°C° 0 mm 7 mps 745 mmHg 66%
    01:00 -18°C° 0 mm 7 mps 745 mmHg 64%
    02:00 -18°C° 0 mm 6 mps 746 mmHg 62%
    03:00 -20°C° 0 mm 6 mps 746 mmHg 60%
    04:00 -20°C° 0 mm 6 mps 747 mmHg 60%
    05:00 -21°C° 0 mm 6 mps 747 mmHg 60%
    06:00 -21°C° 0 mm 6 mps 748 mmHg 60%
    07:00 -20°C° 0 mm 5 mps 748 mmHg 58%
    08:00 -20°C° 0 mm 5 mps 749 mmHg 56%
    09:00 -18°C° 0 mm 4 mps 749 mmHg 55%
    10:00 -17°C° 0 mm 4 mps 749 mmHg 50%
    11:00 -16°C° 0 mm 4 mps 749 mmHg 46%
    12:00 -15°C° 0 mm 4 mps 749 mmHg 41%
    13:00 -14°C° 0 mm 4 mps 748 mmHg 40%
    14:00 -12°C° 0 mm 4 mps 747 mmHg 39%
    15:00 -11°C° 0 mm 4 mps 747 mmHg 38%
    16:00 -10°C° 0 mm 3 mps 747 mmHg 39%
    17:00 -10°C° 0 mm 3 mps 747 mmHg 40%
    18:00 -9°C° 0 mm 3 mps 747 mmHg 42%
    19:00 -9°C° 0 mm 3 mps 747 mmHg 48%
    20:00 -10°C° 0 mm 4 mps 746 mmHg 54%
    21:00 -10°C° 0 mm 4 mps 746 mmHg 60%
    22:00 -10°C° 0 mm 4 mps 746 mmHg 60%
    23:00 -9°C° 0 mm 4 mps 745 mmHg 61%

    Day after tomorrow, 26 January, Saturday

    Time Temperature Precipitation Wind Pressure Humidity
    00:00 -9°C° 0 mm 4 mps 745 mmHg 61%
    01:00 -9°C° 0 mm 4 mps 744 mmHg 64%
    02:00 -8°C° 0 mm 4 mps 744 mmHg 66%
    03:00 -8°C° 0 mm 5 mps 743 mmHg 69%
    04:00 -8°C° 0.1 mm 4 mps 743 mmHg 72%
    05:00 -8°C° 0.1 mm 4 mps 743 mmHg 76%
    06:00 -7°C° 0.1 mm 4 mps 743 mmHg 79%
    07:00 -7°C° 0.1 mm 4 mps 743 mmHg 80%
    08:00 -5°C° 0.1 mm 4 mps 743 mmHg 81%
    09:00 -5°C° 0.1 mm 4 mps 744 mmHg 82%
    10:00 -5°C° 0.1 mm 4 mps 744 mmHg 78%
    11:00 -6°C° 0.1 mm 5 mps 744 mmHg 75%
    12:00 -6°C° 0.1 mm 5 mps 744 mmHg 71%
    13:00 -6°C° 0 mm 5 mps 744 mmHg 69%
    14:00 -7°C° 0 mm 5 mps 744 mmHg 68%
    15:00 -7°C° 0 mm 5 mps 743 mmHg 66%
    16:00 -8°C° 0 mm 5 mps 744 mmHg 68%
    17:00 -10°C° 0 mm 5 mps 744 mmHg 70%
    18:00 -9°C° 0 mm 4 mps 744 mmHg 72%
    19:00 -10°C° 0 mm 4 mps 744 mmHg 73%
    20:00 -10°C° 0 mm 4 mps 745 mmHg 73%
    21:00 -10°C° 0 mm 4 mps 745 mmHg 74%
    22:00 -10°C° 0 mm 4 mps 745 mmHg 75%
    23:00 -11°C° 0 mm 4 mps 744 mmHg 76%

    27 January, Sunday

    Time Temperature Precipitation Wind Pressure Humidity
    00:00 -11°C° 0 mm 4 mps 744 mmHg 77%
    01:00 -10°C° 0 mm 3 mps 744 mmHg 78%
    02:00 -10°C° 0 mm 3 mps 743 mmHg 80%
    03:00 -9°C° 0 mm 2 mps 743 mmHg 82%
    04:00 -9°C° 0 mm 3 mps 743 mmHg 82%
    05:00 -9°C° 0 mm 3 mps 742 mmHg 83%
    06:00 -8°C° 0 mm 3 mps 742 mmHg 83%
    07:00 -8°C° 0 mm 3 mps 742 mmHg 83%
    08:00 -8°C° 0 mm 4 mps 742 mmHg 83%
    09:00 -7°C° 0 mm 4 mps 742 mmHg 82%
    10:00 -5°C° 0.4 mm 4 mps 741 mmHg 85%
    11:00 -4°C° 0.4 mm 4 mps 740 mmHg 87%
    12:00 -3°C° 0.4 mm 4 mps 740 mmHg 89%
    13:00 -3°C° 0.5 mm 4 mps 739 mmHg 89%
    14:00 -4°C° 0.5 mm 5 mps 738 mmHg 89%
    15:00 -2°C° 0.5 mm 5 mps 737 mmHg 89%
    16:00 -2°C° 0.1 mm 4 mps 737 mmHg 90%
    17:00 -1°C° 0.1 mm 3 mps 737 mmHg 91%
    18:00 -1°C° 0.1 mm 3 mps 737 mmHg 91%
    19:00 -1°C° 0 mm 3 mps 737 mmHg 92%
    20:00 -2°C° 0 mm 2 mps 738 mmHg 92%
    21:00 -2°C° 0 mm 2 mps 738 mmHg 93%
    22:00 -2°C° 0 mm 2 mps 738 mmHg 93%
    23:00 -2°C° 0 mm 2 mps 737 mmHg 93%

    28 January, Monday

    Time Temperature Precipitation Wind Pressure Humidity
    00:00 -2°C° 0 mm 2 mps 737 mmHg 94%
    01:00 -3°C° 0 mm 2 mps 737 mmHg 94%
    02:00 -3°C° 0 mm 2 mps 736 mmHg 94%
    03:00 -3°C° 0 mm 2 mps 736 mmHg 95%
    04:00 -2°C° 0 mm 3 mps 736 mmHg 94%
    05:00 -3°C° 0 mm 4 mps 736 mmHg 93%
    06:00 -2°C° 0 mm 4 mps 735 mmHg 93%
    07:00 -2°C° 0 mm 5 mps 735 mmHg 92%
    08:00 -1°C° 0 mm 5 mps 735 mmHg 92%
    09:00 0°C° 0 mm 5 mps 735 mmHg 92%
    10:00 +1°C° 0 mm 6 mps 734 mmHg 89%
    11:00 +2°C° 0 mm 6 mps 734 mmHg 86%
    12:00 +3°C° 0 mm 7 mps 733 mmHg 84%
    13:00 +4°C° 0 mm 6 mps 733 mmHg 84%
    14:00 +4°C° 0 mm 6 mps 732 mmHg 85%
    15:00 +5°C° 0 mm 5 mps 732 mmHg 86%
    16:00 +5°C° 0.3 mm 5 mps 732 mmHg 88%
    17:00 +3°C° 0.3 mm 5 mps 732 mmHg 91%
    18:00 +3°C° 0.3 mm 5 mps 733 mmHg 93%
    19:00 +2°C° 0.5 mm 5 mps 733 mmHg 93%
    20:00 +1°C° 0.5 mm 6 mps 734 mmHg 92%
    21:00 -1°C° 0.5 mm 6 mps 734 mmHg 92%
    22:00 -3°C° 0 mm 6 mps 735 mmHg 88%
    23:00 -5°C° 0 mm 6 mps 735 mmHg 83%

    29 January, Tuesday

    Time Temperature Precipitation Wind Pressure Humidity
    00:00 -8°C° 0 mm 6 mps 736 mmHg 79%
    01:00 -8°C° 0 mm 6 mps 736 mmHg 77%
    02:00 -7°C° 0 mm 5 mps 737 mmHg 76%
    03:00 -8°C° 0 mm 5 mps 737 mmHg 74%
    04:00 -10°C° 0 mm 5 mps 738 mmHg 73%
    05:00 -11°C° 0 mm 6 mps 738 mmHg 72%
    06:00 -12°C° 0 mm 6 mps 738 mmHg 70%
    07:00 -12°C° 0 mm 6 mps 739 mmHg 69%
    08:00 -14°C° 0 mm 6 mps 740 mmHg 68%
    09:00 -14°C° 0 mm 6 mps 740 mmHg 66%
    10:00 -14°C° 0 mm 6 mps 740 mmHg 64%
    11:00 -14°C° 0 mm 6 mps 740 mmHg 62%
    12:00 -15°C° 0 mm 6 mps 740 mmHg 60%
    13:00 -15°C° 0 mm 6 mps 740 mmHg 55%
    14:00 -15°C° 0 mm 6 mps 741 mmHg 51%
    15:00 -15°C° 0 mm 6 mps 741 mmHg 46%
    16:00 -16°C° 0 mm 6 mps 741 mmHg 48%
    17:00 -17°C° 0 mm 6 mps 742 mmHg 50%
    18:00 -18°C° 0 mm 6 mps 743 mmHg 51%
    19:00 -18°C° 0 mm 6 mps 743 mmHg 52%
    20:00 -19°C° 0 mm 5 mps 744 mmHg 52%
    21:00 -19°C° 0 mm 5 mps 744 mmHg 53%
    22:00 -19°C° 0 mm 5 mps 744 mmHg 54%
    23:00 -18°C° 0 mm 4 mps 744 mmHg 55%
    Show more